Terug naar catalogus

STARLINK-30940

ActiefCommunicatieVLEO
NORAD 58409·PAYLOAD·🇺🇸 United States

Gelanceerd Nov 22, 2023 vanaf Cape Canaveral Space Force Station

Loading…

Volgende Passages (komende 24 uur)

TLE

VersSource: CelesTrak SupGP

Epoch: Sep 15, 2026, 01:40 UTC

1 58409C 23180H   26258.06993056  .00021494  00000+0  77840-3 0  2587
2 58409  43.0009 277.9493 0001759 268.5284 132.8591 15.27571963    18

Volg STARLINK-30940 in realtime met AllMySat

Download on the App Store